RH
49 53 53 50 54 53 54 54 52 49 46 46 45 44 39 39 39 38 37 40 39 37
51 53 54 54 55 55 54 50 48 46 44 44 40 37 37 37 38 36 38 39 42 40
51 55 54 56 56 54 51 47 48 47 42 39 36 35 36 38 38 38 42 40 41 42
53 56 55 54 54 51 50 50 47 42 37 35 36 37 36 36 39 40 41 40 43 45
55 54 53 53 51 50 50 47 44 39 37 36 37 36 37 40 37 40 42 43 47 49
51 56 56 51 47 44 44 43 44 45 42 41 46 42 42 41 44 45 44 46 51 52
50 52 54 54 57 62 64 60 50 47 48 52 51 49 49 50 50 48 50 59 58 56
58 64 76 86 88 86 70 60 61 65 69 73 73 70 65 54 58 62 64 67 65 68
91 94 94 94 94 86 84 82 78 76 72 70 64 64 64 57 79 86 82 75 68 62
94 94 94 94 94 93 93 89 89 90 87 87 84 89 92 94 93 97 93 76 69 61
92 92 93 92 93 92 90 93 94 93 92 91 86 88 89 95 97 96 91 78 64 63
93 93 92 93 91 92 94 93 92 91 94 94 91 91 91 91 97 94 77 62 60 64
91 92 93 93 93 92 92 93 90 92 92 91 93 92 85 70 89 95 74 64 64 65
89 92 92 92 92 93 94 91 91 90 92 92 84 79 67 68 79 85 84 71 74 59
Wind_Speed
8 6 7 10 9 8 7 7 8 7 6 6 6 5 6 3 4 4 4 4 2 3
7 9 9 9 9 8 9 9 9 8 8 7 7 7 6 4 5 5 4 4 3 1
7 7 10 10 10 10 10 10 10 8 7 7 7 6 5 4 4 4 3 3 4 3
5 7 9 9 10 10 11 10 9 9 9 8 8 7 6 6 6 4 5 4 4 3
7 7 8 9 9 11 11 10 9 8 7 6 7 6 6 5 5 5 5 5 4 4
9 9 10 10 10 10 10 9 7 6 6 7 5 6 5 5 4 4 4 3 4 3
9 10 11 11 10 10 9 8 8 6 6 5 5 4 4 3 4 4 4 3 3 4
10 10 10 10 9 10 9 7 6 7 6 5 5 4 6 6 5 4 3 3 4 4
9 9 9 9 8 9 8 8 8 7 8 7 3 6 7 5 4 5 6 5 4 4
7 8 7 7 7 7 7 7 7 6 5 5 5 8 9 9 6 5 4 4 4 4
5 5 5 6 5 5 4 4 4 5 5 6 5 8 8 7 3 4 5 6 5 5
4 4 4 4 4 4 4 4 5 5 5 4 4 5 4 5 2 4 5 5 5 5
4 3 2 3 3 3 3 4 3 5 4 5 3 5 6 6 4 4 4 4 5 8
3 3 2 2 2 2 2 3 3 3 4 3 4 4 7 8 3 3 2 4 3 3
Wind_Direction
165 162 156 159 155 154 153 148 141 129 131 124 133 137 138 161 132 145 135 139 119 118
160 158 154 150 151 148 141 139 139 137 140 149 154 155 156 161 150 162 149 143 131 143
179 155 146 146 149 146 138 139 139 144 150 158 157 156 168 157 153 161 144 158 156 158
150 145 142 144 141 139 135 137 146 151 161 165 160 170 178 171 158 173 165 176 167 178
136 131 129 131 133 133 136 144 147 152 158 162 168 173 178 178 173 179 184 179 184 194
136 125 125 126 134 130 133 128 127 140 164 169 171 172 174 185 177 192 192 183 198 221
132 127 125 124 117 107 111 129 154 151 155 160 165 172 163 180 192 194 198 196 226 237
113 102 97 98 111 126 146 140 123 126 133 143 170 186 190 199 198 205 208 226 232 247
122 123 124 127 132 129 127 137 148 166 173 177 183 205 208 184 190 214 227 234 247 248
102 107 112 123 137 147 158 163 168 172 173 172 177 201 217 236 230 220 212 242 246 254
117 124 133 139 142 143 146 156 158 166 179 192 196 215 226 254 253 187 218 234 246 256
88 110 123 133 138 143 155 169 176 181 181 196 175 228 254 266 261 228 238 246 255 251
60 79 109 128 150 142 169 169 174 183 177 186 184 226 248 249 238 224 235 256 257 260
57 72 81 122 121 154 177 177 181 161 159 184 220 226 232 251 244 261 247 265 246 269